Meteo18 Weather Cam more information Meteo18 Weather Cam


Thunder radar more information blitzortung!


Rain radar more information rain snow radar



Select another period ( hide this area )

Units Period Custom range Directly to
Metric English Both
Daily Weekly Monthly Yearly
use both date-selectors for a custom range
previous Day
With this date

WeatherUnderground graphs for this period ( click here )


Daily Summary for Tuesday 21 August 2018
Time Temp. ( °C ) Dew pt. ( °C ) Wind ( km/h ) from Gust ( km/h ) Pressure ( hPa ) Humid.( % ) Rainrate ( cm )
High20,2 17,0 7,9 NNW ( 62/175 ) 8,0 1021,6 91 -
Average17,9 15,1 1,6 Calm #43/109 3,5 1021,0 84 -
Low16,4 14,5 -   0,0 1020,2 75 -
Daily Tabular details for Tuesday 21 August 2018
Time Temp. ( °C ) Dew pt. ( °C ) Wind ( km/h ) from Gust ( km/h ) Pressure ( hPa ) Humid.( % ) Rainrate ( cm )
00:03 19,6 15,0   Calm   1021,6 75 -
00:09 19,5 14,9   Calm   1021,2 75 -
00:13 19,4 14,9   Calm   1021,2 75 -
00:19 19,3 15,0 1,4 NNW 4,8 1021,2 76 -
00:23 19,2 14,9 3,2 NNW 4,8 1021,2 76 -
00:29 19,2 14,9 1,4 NNW 3,2 1021,2 76 -
00:33 19,1 14,8   Calm 1,6 1021,2 76 -
00:39 18,9 14,8   Calm 1,6 1021,2 77 -
00:43 18,9 15,0 1,4 NNW 3,2 1021,2 78 -
00:47 18,9 14,8 1,4 NNW 3,2 1021,2 77 -
00:54 18,8 14,7   Calm 1,6 1021,6 77 -
00:58 18,7 14,6 1,4 NNW 1,6 1021,6 77 -
01:04 18,6 14,5 1,4 North 1,6 1021,6 77 -
01:08 18,4 14,5   Calm 1,6 1021,6 78 -
01:14 18,3 14,6 3,2 NNW 3,2 1021,6 79 -
01:18 18,4 14,9 1,4 NNW 3,2 1021,6 80 -
01:24 18,6 14,9   Calm 3,2 1021,6 79 -
01:28 18,6 14,9 3,2 North 4,8 1021,6 79 -
01:34 18,6 14,9 1,4 North 1,6 1021,6 79 -
01:38 18,4 14,7 1,4 NNW 1,6 1021,6 79 -
01:44 18,4 14,9 1,4 North 1,6 1021,6 80 -
01:48 18,4 14,9 1,4 North 1,6 1021,6 80 -
01:54 18,3 15,0 1,4 NNW 3,2 1021,2 81 -
01:58 18,3 15,0 3,2 NW 3,2 1021,2 81 -
02:04 18,3 15,0 1,4 NNW 6,4 1021,6 81 -
02:08 18,3 15,0 4,7 NNW 6,4 1021,6 81 -
02:14 18,4 15,1 6,4 North 8,0 1021,2 81 -
02:18 18,5 15,2 1,4 NNW 6,4 1021,2 81 -
02:24 18,5 15,2 3,2 NNE 4,8 1021,2 81 -
02:28 18,4 15,1 3,2 North 4,8 1021,2 81 -
02:34 18,4 15,1 1,4 North 4,8 1021,2 81 -
02:38 18,3 15,0 1,4 NNW 4,8 1021,2 81 -
02:44 18,3 15,2 3,2 North 4,8 1021,2 82 -
02:48 18,2 15,1 3,2 NNW 4,8 1021,2 82 -
02:54 18,1 15,0   Calm 4,8 1021,2 82 -
02:58 18,0 15,1   Calm 4,8 1021,2 83 -
03:04 17,9 15,0 3,2 North 4,8 1021,2 83 -
03:08 17,9 15,0   Calm 4,8 1021,2 83 -
03:14 17,8 15,1 1,4 NNW 3,2 1021,2 84 -
03:18 17,8 15,1   Calm 3,2 1020,9 84 -
03:24 17,8 15,1   Calm 1,6 1020,9 84 -
03:28 17,8 15,1   Calm 3,2 1020,9 84 -
03:34 17,8 15,2   Calm 3,2 1020,9 85 -
03:38 17,8 15,1   Calm 1,6 1020,9 84 -
03:44 17,8 15,1   Calm 1,6 1020,9 84 -
03:48 17,7 15,0   Calm 1,6 1020,9 84 -
03:54 17,6 14,9   Calm   1020,9 84 -
03:58 17,5 14,8   Calm 1,6 1020,9 84 -
04:04 17,3 14,8 1,4 WNW 1,6 1020,9 85 -
04:08 17,2 14,8   Calm 1,6 1020,9 86 -
04:14 17,1 14,9   Calm 1,6 1020,9 87 -
04:19 17,2 15,0   Calm 1,6 1020,9 87 -
04:23 17,2 15,0 1,4 NW 1,6 1020,9 87 -
04:29 17,2 14,8   Calm   1020,9 86 -
04:33 17,3 15,1 1,4 NW 1,6 1020,9 87 -
04:39 17,2 14,8   Calm 1,6 1020,5 86 -
04:43 17,1 14,9 1,4 NW 1,6 1020,5 87 -
04:49 17,1 14,9   Calm   1020,5 87 -
04:53 17,0 14,8   Calm 1,6 1020,5 87 -
04:59 17,1 14,9   Calm 3,2 1020,5 87 -
05:03 17,1 14,9   Calm 1,6 1020,5 87 -
05:09 17,1 14,9   Calm 1,6 1020,5 87 -
05:13 17,1 14,9 3,2 North 3,2 1020,5 87 -
05:19 17,1 14,9 3,2 NNE 3,2 1020,5 87 -
05:23 16,9 14,7 1,4 North 3,2 1020,5 87 -
05:29 16,9 14,9 3,2 NNE 4,8 1020,5 88 -
05:33 16,8 14,6 1,4 NNW 4,8 1020,5 87 -
05:39 16,8 14,8 3,2 NNW 3,2 1020,5 88 -
05:43 16,9 14,9 1,4 NNW 3,2 1020,2 88 -
05:49 16,9 14,9 1,4 NW 4,8 1020,5 88 -
05:53 17,1 15,1 3,2 NNW 4,8 1020,5 88 -
05:59 17,1 15,1   Calm 3,2 1020,5 88 -
06:03 17,0 14,8   Calm 1,6 1020,5 87 -
06:09 16,9 14,9   Calm 3,2 1020,5 88 -
06:13 16,9 14,9 1,4 NNW 3,2 1020,5 88 -
06:19 16,9 14,9   Calm 3,2 1020,5 88 -
06:23 16,9 14,9 1,4 NW 1,6 1020,5 88 -
06:27 16,9 14,9 1,4 NW 4,8 1020,5 88 -
06:33 16,9 14,9   Calm 3,2 1020,5 88 -
06:38 16,7 14,7   Calm   1020,5 88 -
06:44 16,7 14,9   Calm 1,6 1020,5 89 -
06:48 16,7 14,9   Calm 1,6 1020,9 89 -
06:54 16,7 14,9 1,4 NW 1,6 1020,5 89 -
06:58 16,7 14,9   Calm 3,2 1020,9 89 -
07:04 16,6 14,8 1,4 WNW 1,6 1020,9 89 -
07:08 16,6 15,0   Calm 1,6 1020,9 90 -
07:14 16,4 14,6   Calm   1020,9 89 -
07:18 16,4 14,8 1,4 WNW 1,6 1020,9 90 -
07:24 16,4 14,8 1,4 WNW 3,2 1020,9 90 -
07:28 16,5 15,0   Calm 1,6 1020,9 91 -
07:34 16,8 15,3 3,2 NNW 4,8 1020,9 91 -
07:38 17,1 15,6 6,4 NW 6,4 1020,9 91 -
07:44 17,4 15,6 6,4 North 6,4 1020,9 89 -
07:48 17,6 15,8 3,2 NW 6,4 1020,9 89 -
07:54 17,8 15,8 3,2 NNW 6,4 1020,9 88 -
07:58 18,0 16,0 3,2 NNW 4,8 1020,9 88 -
08:04 18,3 16,1 4,7 NNW 6,4 1020,9 87 -
08:08 18,4 16,2 6,4 North 6,4 1020,9 87 -
08:14 18,6 16,2 3,2 NNW 8,0 1020,9 86 -
08:18 18,7 16,3 3,2 North 8,0 1020,9 86 -
08:24 18,9 16,3 3,2 NNE 6,4 1020,9 85 -
08:28 19,1 16,5 1,4 NNE 8,0 1021,2 85 -
08:34 19,3 16,5 4,7 North 8,0 1021,2 84 -
08:38 19,3 16,5   Calm 8,0 1021,2 84 -
08:44 19,5 16,7 4,7 North 4,8 1021,2 84 -
08:48 19,8 16,8 3,2 North 6,4 1021,2 83 -
08:54 20,1 16,9 3,2 NNE 8,0 1021,2 82 -
08:58 20,2 17,0 3,2 NNW 8,0 1021,2 82 -
09:04 20,2 16,8 7,9 NNE 8,0 1021,2 81 -
Daily Summary for Tuesday 21 August 2018
Time Temp. ( °C ) Dew pt. ( °C ) Wind ( km/h ) from Gust ( km/h ) Pressure ( hPa ) Humid.( % ) Rainrate ( cm )
High20,2 17,0 7,9 NNW ( 62/175 ) 8,0 1021,6 91 -
Average17,9 15,1 1,6 Calm #43/109 3,5 1021,0 84 -
Low16,4 14,5 -   0,0 1020,2 75 -
Daily Tabular details for Tuesday 21 August 2018
Time Temp. ( °C ) Dew pt. ( °C ) Wind ( km/h ) from Gust ( km/h ) Pressure ( hPa ) Humid.( % ) Rainrate ( cm )
00:03 19,6 15,0   Calm   1021,6 75 -
00:09 19,5 14,9   Calm   1021,2 75 -
00:13 19,4 14,9   Calm   1021,2 75 -
00:19 19,3 15,0 1,4 NNW 4,8 1021,2 76 -
00:23 19,2 14,9 3,2 NNW 4,8 1021,2 76 -
00:29 19,2 14,9 1,4 NNW 3,2 1021,2 76 -
00:33 19,1 14,8   Calm 1,6 1021,2 76 -
00:39 18,9 14,8   Calm 1,6 1021,2 77 -
00:43 18,9 15,0 1,4 NNW 3,2 1021,2 78 -
00:47 18,9 14,8 1,4 NNW 3,2 1021,2 77 -
00:54 18,8 14,7   Calm 1,6 1021,6 77 -
00:58 18,7 14,6 1,4 NNW 1,6 1021,6 77 -
01:04 18,6 14,5 1,4 North 1,6 1021,6 77 -
01:08 18,4 14,5   Calm 1,6 1021,6 78 -
01:14 18,3 14,6 3,2 NNW 3,2 1021,6 79 -
01:18 18,4 14,9 1,4 NNW 3,2 1021,6 80 -
01:24 18,6 14,9   Calm 3,2 1021,6 79 -
01:28 18,6 14,9 3,2 North 4,8 1021,6 79 -
01:34 18,6 14,9 1,4 North 1,6 1021,6 79 -
01:38 18,4 14,7 1,4 NNW 1,6 1021,6 79 -
01:44 18,4 14,9 1,4 North 1,6 1021,6 80 -
01:48 18,4 14,9 1,4 North 1,6 1021,6 80 -
01:54 18,3 15,0 1,4 NNW 3,2 1021,2 81 -
01:58 18,3 15,0 3,2 NW 3,2 1021,2 81 -
02:04 18,3 15,0 1,4 NNW 6,4 1021,6 81 -
02:08 18,3 15,0 4,7 NNW 6,4 1021,6 81 -
02:14 18,4 15,1 6,4 North 8,0 1021,2 81 -
02:18 18,5 15,2 1,4 NNW 6,4 1021,2 81 -
02:24 18,5 15,2 3,2 NNE 4,8 1021,2 81 -
02:28 18,4 15,1 3,2 North 4,8 1021,2 81 -
02:34 18,4 15,1 1,4 North 4,8 1021,2 81 -
02:38 18,3 15,0 1,4 NNW 4,8 1021,2 81 -
02:44 18,3 15,2 3,2 North 4,8 1021,2 82 -
02:48 18,2 15,1 3,2 NNW 4,8 1021,2 82 -
02:54 18,1 15,0   Calm 4,8 1021,2 82 -
02:58 18,0 15,1   Calm 4,8 1021,2 83 -
03:04 17,9 15,0 3,2 North 4,8 1021,2 83 -
03:08 17,9 15,0   Calm 4,8 1021,2 83 -
03:14 17,8 15,1 1,4 NNW 3,2 1021,2 84 -
03:18 17,8 15,1   Calm 3,2 1020,9 84 -
03:24 17,8 15,1   Calm 1,6 1020,9 84 -
03:28 17,8 15,1   Calm 3,2 1020,9 84 -
03:34 17,8 15,2   Calm 3,2 1020,9 85 -
03:38 17,8 15,1   Calm 1,6 1020,9 84 -
03:44 17,8 15,1   Calm 1,6 1020,9 84 -
03:48 17,7 15,0   Calm 1,6 1020,9 84 -
03:54 17,6 14,9   Calm   1020,9 84 -
03:58 17,5 14,8   Calm 1,6 1020,9 84 -
04:04 17,3 14,8 1,4 WNW 1,6 1020,9 85 -
04:08 17,2 14,8   Calm 1,6 1020,9 86 -
04:14 17,1 14,9   Calm 1,6 1020,9 87 -
04:19 17,2 15,0   Calm 1,6 1020,9 87 -
04:23 17,2 15,0 1,4 NW 1,6 1020,9 87 -
04:29 17,2 14,8   Calm   1020,9 86 -
04:33 17,3 15,1 1,4 NW 1,6 1020,9 87 -
04:39 17,2 14,8   Calm 1,6 1020,5 86 -
04:43 17,1 14,9 1,4 NW 1,6 1020,5 87 -
04:49 17,1 14,9   Calm   1020,5 87 -
04:53 17,0 14,8   Calm 1,6 1020,5 87 -
04:59 17,1 14,9   Calm 3,2 1020,5 87 -
05:03 17,1 14,9   Calm 1,6 1020,5 87 -
05:09 17,1 14,9   Calm 1,6 1020,5 87 -
05:13 17,1 14,9 3,2 North 3,2 1020,5 87 -
05:19 17,1 14,9 3,2 NNE 3,2 1020,5 87 -
05:23 16,9 14,7 1,4 North 3,2 1020,5 87 -
05:29 16,9 14,9 3,2 NNE 4,8 1020,5 88 -
05:33 16,8 14,6 1,4 NNW 4,8 1020,5 87 -
05:39 16,8 14,8 3,2 NNW 3,2 1020,5 88 -
05:43 16,9 14,9 1,4 NNW 3,2 1020,2 88 -
05:49 16,9 14,9 1,4 NW 4,8 1020,5 88 -
05:53 17,1 15,1 3,2 NNW 4,8 1020,5 88 -
05:59 17,1 15,1   Calm 3,2 1020,5 88 -
06:03 17,0 14,8   Calm 1,6 1020,5 87 -
06:09 16,9 14,9   Calm 3,2 1020,5 88 -
06:13 16,9 14,9 1,4 NNW 3,2 1020,5 88 -
06:19 16,9 14,9   Calm 3,2 1020,5 88 -
06:23 16,9 14,9 1,4 NW 1,6 1020,5 88 -
06:27 16,9 14,9 1,4 NW 4,8 1020,5 88 -
06:33 16,9 14,9   Calm 3,2 1020,5 88 -
06:38 16,7 14,7   Calm   1020,5 88 -
06:44 16,7 14,9   Calm 1,6 1020,5 89 -
06:48 16,7 14,9   Calm 1,6 1020,9 89 -
06:54 16,7 14,9 1,4 NW 1,6 1020,5 89 -
06:58 16,7 14,9   Calm 3,2 1020,9 89 -
07:04 16,6 14,8 1,4 WNW 1,6 1020,9 89 -
07:08 16,6 15,0   Calm 1,6 1020,9 90 -
07:14 16,4 14,6   Calm   1020,9 89 -
07:18 16,4 14,8 1,4 WNW 1,6 1020,9 90 -
07:24 16,4 14,8 1,4 WNW 3,2 1020,9 90 -
07:28 16,5 15,0   Calm 1,6 1020,9 91 -
07:34 16,8 15,3 3,2 NNW 4,8 1020,9 91 -
07:38 17,1 15,6 6,4 NW 6,4 1020,9 91 -
07:44 17,4 15,6 6,4 North 6,4 1020,9 89 -
07:48 17,6 15,8 3,2 NW 6,4 1020,9 89 -
07:54 17,8 15,8 3,2 NNW 6,4 1020,9 88 -
07:58 18,0 16,0 3,2 NNW 4,8 1020,9 88 -
08:04 18,3 16,1 4,7 NNW 6,4 1020,9 87 -
08:08 18,4 16,2 6,4 North 6,4 1020,9 87 -
08:14 18,6 16,2 3,2 NNW 8,0 1020,9 86 -
08:18 18,7 16,3 3,2 North 8,0 1020,9 86 -
08:24 18,9 16,3 3,2 NNE 6,4 1020,9 85 -
08:28 19,1 16,5 1,4 NNE 8,0 1021,2 85 -
08:34 19,3 16,5 4,7 North 8,0 1021,2 84 -
08:38 19,3 16,5   Calm 8,0 1021,2 84 -
08:44 19,5 16,7 4,7 North 4,8 1021,2 84 -
08:48 19,8 16,8 3,2 North 6,4 1021,2 83 -
08:54 20,1 16,9 3,2 NNE 8,0 1021,2 82 -
08:58 20,2 17,0 3,2 NNW 8,0 1021,2 82 -
09:04 20,2 16,8 7,9 NNE 8,0 1021,2 81 -

Download your copy of this data-set  here

Our weather-data as stored at Weather Underground. Script developed by Jim McMurry. Adapted for the template by Leuven-Template.eu

You find our weather info also at:

Weather Underground

Equipment we use:

Weather-station
Davis Vue

Weather-program
Meteobridge

Weather-server
Raspberry PI 2 B+

Provider
1 and 1

Davis Vue

Meteobridge

Raspberry PI 2 B+

1 and 1